Regional Weather Roundup
Issued by NWS

Home | Current Version | Previous Version | Text Only | Print | Product List | Glossary Off
Versions: 1 2 3 4 5 6 7 8 9 10 11 12 13 14 15 16 17 18 19 20 21 22 23 24 25 26 27 28 29 30 31 32 33 34 35 36 37 38 39 40 41 42 43 44 45 46 47 48 49 50

000
ASUS43 KMKX 030311
RWRWI

WISCONSIN REGIONAL WEATHER ROUNDUP
NATIONAL WEATHER SERVICE MILWAUKEE/SULLIVAN WI
1000 PM CDT SUN AUG 02 2015

NOTE: "FAIR" INDICATES FEW OR NO CLOUDS BELOW 12,000 FEET WITH NO
SIGNIFICANT WEATHER AND/OR OBSTRUCTIONS TO VISIBILITY.

WIZ001-002-006>008-014>016-023>028-030400-
NORTHWEST WISCONSIN

CITY           SKY/WX    TMP DP  RH WIND       PRES   REMARKS
SUPERIOR ARPT  PTCLDY    63  49  60 W6        29.75R
ASHLAND        CLEAR     55  50  83 SW5       29.74R
HAYWARD        CLEAR     64  50  60 CALM      29.77R
SIREN          CLEAR     62  47  60 W3        29.79R
CUMBERLAND     CLEAR     63  46  55 NW10      29.79R
RICE LAKE      CLEAR     65  48  55 NW3       29.79R
CHETEK         CLEAR     69  51  53 NW6       29.78R
LADYSMITH      MOCLDY    67  55  64 NW8       29.78R
EAU CLAIRE     CLEAR     68  54  60 NW6       29.75R
MENOMONIE      CLEAR     71  54  54 NW12      29.77R
NEW RICHMOND   CLEAR     64  52  65 N8        29.80R
OSCEOLA        CLEAR     67  52  59 N5        29.82R
$$

WIZ003>005-009-010-017-018-030400-
NORTH CENTRAL WISCONSIN

CITY           SKY/WX    TMP DP  RH WIND       PRES   REMARKS
MANITOWISH WTR MOCLDY    59  57  94 NW5       29.74R
ARBOR VITAE    PTCLDY    62  58  88 NW6       29.74R
WOODRUFF       PTCLDY    62  58  88 NW6       29.74R
RHINELANDER    PTCLDY    58  56  93 W7        29.74R
EAGLE RIVER    PTCLDY    58  52  81 W3        29.72S
LAND O LAKES   CLEAR     61  54  79 NW3       29.73R
PHILLIPS       CLOUDY    63  56  77 N3        29.75R
TOMAHAWK       PTCLDY    60  56  85 CALM      29.74S
MEDFORD        CLEAR     63  56  78 N3        29.75R
MERRILL        NOT AVBL
$$

WIZ029-030-035-036-043>047-030400-
CENTRAL WISCONSIN

CITY           SKY/WX    TMP DP  RH WIND       PRES   REMARKS
WAUSAU         PTCLDY    68  57  68 N7        29.72R
MOSINEE        PTCLDY    68  57  68 N8        29.74R
MARSHFIELD     CLEAR     68  56  65 NW9       29.74R
STEVENS POINT  MOCLDY    67  59  75 N7        29.73R
WAUPACA        CLEAR     69  67  94 CALM      29.70R
WAUTOMA        CLEAR     70  60  70 NW6       29.71R
WISC RAPIDS    CLEAR     70  57  63 NW5       29.73R
CAMP DOUGLAS   NOT AVBL
$$

WIZ011>013-019>022-031-037>040-048>050-030400-
NORTHEAST WISCONSIN

CITY           SKY/WX    TMP DP  RH WIND       PRES   REMARKS
ANTIGO         PTCLDY    62  57  83 NW6       29.74R
SHAWANO        CLOUDY    67  64  92 CALM      29.69R
OCONTO         CLOUDY    62  62 100 CALM      29.66S
STURGEON BAY   PTCLDY    61  57  88 CALM      29.69S
GREEN BAY      PTCLDY    63  62  97 CALM      29.68R
MANITOWOC      MOCLDY    66  61  84 MISG      29.67R
APPLETON       PTCLDY    64  57  77 CALM      29.69R
CLINTONVILLE   MOCLDY    64  63  94 CALM      29.69R
OSHKOSH        PTCLDY    66  63  90 CALM      29.69R
$$

WIZ032>034-041-042-053>061-030400-
SOUTHWEST WISCONSIN

CITY           SKY/WX    TMP DP  RH WIND       PRES   REMARKS
LA CROSSE      MOCLDY    75  64  68 NW8       29.73R
SPARTA         PTCLDY    73  57  59 W6        29.74R
VIROQUA        PTCLDY    70  63  78 NW5       29.76R
BOSCOBEL       PTCLDY    75  62  64 CALM      29.73R
PRAIRIE DU CHI PTCLDY    78  60  54 W7        29.74R
PLATTEVILLE    MOCLDY    75  65  70 NW7       29.74R
$$

WIZ056-057-062-063-064-067-068-030400-
SOUTH CENTRAL WISCONSIN

CITY           SKY/WX    TMP DP  RH WIND       PRES   REMARKS
REEDSBURG      PTCLDY    75  61  62 NW7       29.72R
BARABOO/DELLS  CLEAR     73  58  59 NW5       29.73R
LONE ROCK      CLEAR     77  61  57 NW5       29.72R
MINERAL POINT  PTCLDY    75  61  60 W5        29.74R
MADISON        PTCLDY    77  61  57 N8        29.71R
MIDDLETON      CLEAR     77  57  49 N8        29.72R
WATERTOWN      PTCLDY    69  66  90 N5        29.70R
MONROE         CLEAR     77  61  57 NW9G16    29.71R
JANESVILLE     PTCLDY    81  59  47 NW13      29.68R HX  81
$$

WIZ051-052-058>065-066-070>072-030400-
SOUTHEAST WISCONSIN

CITY           SKY/WX    TMP DP  RH WIND       PRES   REMARKS
MILWAUKEE      CLOUDY    70  64  81 NW9       29.68R THUNDER
WAUKESHA       CLOUDY    70  57  64 N7        29.72R
MILWAUKEE/TIMM CLOUDY    68  57  68 N7        29.71R
RACINE         CLOUDY    69  64  84 N8        29.70R
BURLINGTON     CLOUDY    71  62  72 N9        29.71R
KENOSHA        CLOUDY    69  64  84 N8        29.68R THUNDER
FOND DU LAC    PTCLDY    66  64  93 CALM      29.70R
SHEBOYGAN      MOCLDY    66  62  87 NW6       29.68R
WEST BEND      MOCLDY    64  59  82 NW3       29.70R
JUNEAU         CLEAR     66  63  90 CALM      29.72R
$$

LSZ147-162-030400-
LAKE SUPERIOR

STATION/POSITION TIME  TEMP    WIND        PRES    WAVE
                       AIR SEA DIR/SP/G            HT/PER
                 (UTC) (F)     (DEG/KT/KT) (MB)    (FT/S)
W MID LAKE BUOY  0250   59 55  310/  8/ 10 1004.7R   1/ 3
DEVILS ISLAND    0300   64     300/ 15/ 17 1006.2R
PORT WING        0200   66     250/  4/  6 1006.4R
SAXON HARBOR     0200   67                 1005.8
$$

LMZ867-665-643>646-030400-
LAKE MICHIGAN

STATION/POSITION TIME  TEMP    WIND        PRES    WAVE
                       AIR SEA DIR/SP/G            HT/PER
                 (UTC) (F)     (DEG/KT/KT) (MB)    (FT/S)
CHAMBERS ISLAND  0200   64     230/  3/  4 1004.4R
S GREEN BAY BUOY 0300   67 69  280/  6/  8 1006.0R
N MID LAKE BUOY  0250   67 68  270/ 10/ 12 1003.1R   2/ 5
NORTHPORT PIER   0200   65     270/  3/  5 1004.1R
ALGOMA LAKESHORE 0212          330/  6/  8   N/A
KEWAUNEE LAKESHO 0200   65     290/  5/  7 1003.6R
SHEBOYGAN LAKESH 0300   69     300/ 11/ 13 1004.6R
PORT WASHINGTON  0200   69     320/  4/  8 1005.1S
ATWATER BUOY     0300   63 46  280/  6/  8 1006.8R
MILWAUKEE LAKESH 0200   63     100/  5/  6   N/A
KENOSHA   LAKESH 0300   70      20/  9/ 18 1005.1R
$$

TC  - TEMPERATURE IN CELSIUS
VSB - VISIBILITY IN STATUTE MILES
WCI - WIND CHILL INDEX
HX  - HEAT INDEX




USA.gov is the U.S. government's official web portal to all federal, state and local government web resources and services.